Regional Weather Roundup
Issued by NWS

Home | Current Version | Previous Version | Text Only | Print | Product List | Glossary On
Versions: 1 2 3 4 5 6 7 8 9 10 11 12 13 14 15 16 17 18 19 20 21 22 23 24 25 26 27 28 29 30 31 32 33 34 35 36 37 38 39 40 41 42 43 44 45 46 47 48 49 50
000
ASUS43 KDTX 222110
RWRMI
MICHIGAN HOURLY REGIONAL WEATHER ROUNDUP
NATIONAL WEATHER SERVICE DETROIT/PONTIAC MI
500 PM EDT SUN OCT 22 2017

NOTE: "FAIR" INDICATES FEW OR NO CLOUDS BELOW 12,000 FEET WITH NO
SIGNIFICANT WEATHER AND/OR OBSTRUCTION TO VISIBILITY.

MIZ047>049-052>055-059>063-066>070-074>076-081>083-222200-
SOUTHEAST LOWER MICHIGAN

CITY           SKY/WX    TMP DP  RH WIND       PRES   REMARKS
ADRIAN         PTSUNNY   76  55  48 SW17      30.04S
ALMA           PTSUNNY   74  56  53 S14       29.96S
ANN ARBOR      MOSUNNY   75  56  51 S16G26    30.03S
BAD AXE        SUNNY     75  52  44 S17G24    30.00S
CARO           SUNNY     76  55  47 S16G24    29.99R
DETROIT CITY   SUNNY     76  56  49 S13       30.05F
DETROIT        PTSUNNY   76  56  49 S15       30.05F
FLINT          CLOUDY    75  56  51 S16G26    30.00F
GROSSE ILE     SUNNY     71  58  63 S12G18    30.05S
HILLSDALE      MOSUNNY   73  54  49 S14G23    30.02F
HOWELL         MOSUNNY   74  56  52 S12G17    30.02R

CITY           SKY/WX    TMP DP  RH WIND       PRES   REMARKS
JACKSON        CLOUDY    75  56  51 SE14      30.01S
LAMBERTVILLE   SUNNY     80  52  37 S10       30.04S
LANSING        CLOUDY    74  57  55 S13       29.98F
LAPEER         FAIR      73  56  55 S12       30.03S
MASON          CLOUDY    75  56  51 S15       30.00S
MONROE         SUNNY     79  51  38 S14G23    30.04S
MT. CLEMENS    MOSUNNY   72  60  65 S13       30.04F
PONTIAC        PTSUNNY   73  57  57 SE10      30.03S
PORT HOPE        N/A     76  53  44 S8G23     29.97F
PORT HURON     SUNNY     75  55  50 S16G23    30.06F
TRI CITIES     MOSUNNY   76  59  55 S13G25    29.97S
MIDLAND        FAIR      76  59  54 S13G21    29.95R
TROY           SUNNY     75  56  51 S8G17     30.06F
SAGINAW HB     MOSUNNY   73  57  56 S15G21    29.97S
$$
MIZ043>046-050>051-056>058-064>065-071>073-077>080-222200-
SOUTHWEST LOWER MICHIGAN

CITY           SKY/WX    TMP DP  RH WIND       PRES   REMARKS
BATTLE CREEK   CLOUDY    74  59  59 S9        29.99S
BENTON HARBOR  CLOUDY    73  58  59 S6        29.95S
BIG RAPIDS     RAIN      65  62  90 W9        29.95R
COLDWATER      MOSUNNY   74  54  49 S12       30.01R
FREMONT        LGT RAIN  64  64 100 SW10      29.95R
HOLLAND        LGT RAIN  70  61  73 S15G21    29.96R
GRAND RAPIDS   CLOUDY    73  60  63 S14G24    29.96R
IONIA          PTSUNNY   75  57  53 S16G24    29.95S
KALAMAZOO      CLOUDY    73  57  57 S16G23    29.99R
LUDINGTON      DRIZZLE   52  50  92 N14G20    29.96S
MARSHALL       CLOUDY    74  57  55 S14G21    29.99S
MOUNT PLEASANT PTSUNNY   76  57  51 S14G25    29.93F
MUSKEGON       HVY RAIN  63  60  90 W21G28    29.96R FOG
SOUTH HAVEN    CLOUDY    72  60  65 S7        29.96R
$$
MIZ016>042-222200-
NORTHERN LOWER MICHIGAN

CITY           SKY/WX    TMP DP  RH WIND       PRES   REMARKS
ALPENA         MOSUNNY   75  55  49 S21G29    29.92F
BEAVER ISLAND  DRIZZLE   54  51  90 NW13G23   29.94R
BELLAIRE       RAIN      64  62  94 SW3       29.92R
CADILLAC       LGT RAIN  65  62  90 W7        29.93R
CHARLEVOIX     RAIN      56  56 100 W14G23    29.97R
FRANKFORT      RAIN      55  55  99 NW14G24   29.97R
GAYLORD        LGT RAIN  65  59  81 W10       29.92R
GRAYLING       CLOUDY    73  54  51 S10       29.92R
HARBOR SPRINGS HVY RAIN  62  60  94 W5        29.91S
HOUGHTON LAKE  LGT RAIN  71  58  63 S14G20    29.92F
MANISTEE       LGT RAIN  53  50  89 NW12G20   29.98R
OSCODA         CLOUDY    75  53  45 S16G28    29.94F
PELLSTON       LGT RAIN  63  62  97 W6        29.91R FOG
ROGERS CITY    PTSUNNY   74  54  48 S14G23    29.90S
TRAVERSE CITY  LGT RAIN  59  55  87 W13       29.93R FOG
$$
MIZ007>008-015-222200-
EASTERN UPPER MICHIGAN

CITY           SKY/WX    TMP DP  RH WIND       PRES   REMARKS
KINROSS        LGT RAIN  61  60  97 W8        29.93R
MACKINAC ISLAN LGT RAIN  62  61  97 W10G21    29.90S
NEWBERRY       LGT RAIN  50  49  97 N9        29.92R
S. S. MARIE    RAIN      56  54  93 NW15      29.92R FOG
MUNISING         N/A     51  50  96 CALM      29.93R
$$
MIZ004>006-011>014-085-222200-
CENTRAL UPPER MICHIGAN

CITY           SKY/WX    TMP DP  RH WIND       PRES   REMARKS
MANISTIQUE     DRIZZLE   50  44  81 NW7       29.95R
ESCANABA       LGT RAIN  51  49  92 SW3       29.95R
MENOMINEE      LGT RAIN  52  50  93 W3        29.98R
SAWYER-GWINN   RAIN      48  46  93 S6        29.94R
$$
MIZ001>003-009>011-084-222200-
WESTERN UPPER MICHIGAN

CITY           SKY/WX    TMP DP  RH WIND       PRES   REMARKS
IRON MOUNTAIN  LGT RAIN  50  45  83 W3        29.94R
HOUGHTON       CLOUDY    52  40  63 SW9       29.88R
COPPER HARBOR    N/A     52  44  74 VRB5      29.86S
IRONWOOD       CLOUDY    51  37  58 SW8       29.91R
$$

ABBREVIATIONS USED IN REMARKS
   TC - TEMPERATURE IN CELSIUS
  WCI - WIND CHILL INDEX
   HX - HEAT INDEX
  VSB - VISIBILITY





USA.gov is the U.S. government's official web portal to all federal, state and local government web resources and services.